User: anonymous   Login
Location: Unspecified
(0.0000°N, 0.0000°E)
Time: 20:25:24
(UTC+02:00)
Language:

Satcom C4 - Orbit

View from above orbital plane
View from above orbital plane
View from above satellite
View from above satellite

Ground track
Ground track

The orbit data is extracted from the following two-line orbital elements,

1 22096U 92057A   24106.82403505  .00000042  00000-0  00000-0 0  9998
2 22096  12.9855  21.7466 0002924 358.4818 171.9159  0.99016155117065
Epoch (UTC): 15 April 2024 19:46:36
Eccentricity: 0.0002924
inclination: 12.9855°
perigee height: 36129 km
apogee height: 36154 km
right ascension of ascending node: 21.7466°
argument of perigee: 358.4818°
revolutions per day: 0.99016155
mean anomaly at epoch: 171.9159°
orbit number at epoch: 11706

The dashed part of the orbit path shows where the satellite is in the earth's shadow,  

DLR